Regional Weather Roundup
Issued by NWS Sioux Falls, SD

Home | Current Version | Previous Version | Text Only | Print | Product List | Glossary On
Versions: 1 2 3 4 5 6 7 8 9 10 11 12 13 14 15 16 17 18 19 20 21 22 23 24 25 26 27 28 29 30 31 32 33 34 35 36 37 38 39 40 41 42 43 44 45 46 47 48 49 50
000
ASUS43 KFSD 171302
RWRFSD

WEATHER ROUNDUP FOR SE SOUTH DAKOTA/SW MINNESOTA/NW IOWA
NATIONAL WEATHER SERVICE SIOUX FALLS SD
800 AM CDT TUE OCT 17 2017

NOTE: "FAIR" INDICATES FEW OR NO CLOUDS BELOW 12,000 FEET WITH NO
SIGNIFICANT WEATHER AND OR OBSTRUCTIONS TO VISIBILITY.


SDZ038>040-050-052>070-171400-
SOUTHEAST SOUTH DAKOTA

CITY           SKY/WX    TMP DP  RH WIND       PRES   REMARKS
BROOKINGS      CLEAR     38  35  89 SE6       30.03S
CHAMBERLAIN    NOT AVBL
HURON          CLEAR     38  36  92 S3        30.01F
MADISON        FAIR      43  39  87 CALM      30.03S
MITCHELL       CLEAR     41  37  86 SW5       30.03S
SIOUX FALLS    PTCLDY    38  37  97 CALM      30.04S
WINNER         FAIR      48  34  58 SW12      30.05F
YANKTON        CLEAR     40  38  93 W3        30.05S
$$

MNZ071-072-080-081-089-090-097-098-171400-
SOUTHWEST MINNESOTA

CITY           SKY/WX    TMP DP  RH WIND       PRES   REMARKS
FAIRMONT       CLEAR     44  39  82 CALM      30.04
JACKSON        PTCLDY    45  37  76 SW6       30.04R
MARSHALL       CLEAR     46  38  73 CALM      30.01S
MONTEVIDEO     CLOUDY    37  34  87 SW3       30.00S
PIPESTONE      CLEAR     39  36  87 CALM      30.04R
REDWOOD FALLS  CLOUDY    42  36  79 CALM      30.01S
TRACY          CLEAR     48  40  75 SW9       30.01S
WORTHINGTON    CLEAR     46  38  73 SW8       30.04S
$$

IAZ001>003-012>014-020>022-031-032-NEZ013-014-SDZ071-171400-
NORTHWEST IOWA

CITY           SKY/WX    TMP DP  RH WIND       PRES   REMARKS
CHEROKEE       CLEAR     39  38  98 CALM      30.06F
DENISON        CLEAR     46  41  81 VRB7      30.10S
ESTHERVILLE    CLEAR     47  40  76 SW8       30.03F
LE MARS        CLEAR     41  39  93 CALM      30.06S
ORANGE CITY    CLEAR     43  39  87 CALM      30.05S
SHELDON        CLEAR     37  37 100 S3        30.04S
SIOUX CITY     CLEAR     38  37  97 SE7       30.07S
SPENCER        CLEAR     42  38  85 SW5       30.05S
STORM LAKE     CLEAR     48  39  71 SW10      30.06S
$$

ABBREVIATIONS USED IN REMARKS
   TC - TEMPERATURE IN CELSIUS
  WCI - WIND CHILL INDEX
   HX - HEAT INDEX
  VSB - VISIBILITY





USA.gov is the U.S. government's official web portal to all federal, state and local government web resources and services.